Weather History for Baker, OR

Change the Weather History Date:

Monday, January 6, 2014

  Actual Average Record
Temperature  
Mean Temperature 17 °F 24 °F  
Max Temperature 32 °F 33 °F 50 °F (1978)
Min Temperature 1 °F 16 °F -23 °F (1979)
Degree Days  
Heating Degree Days 48 41  
Month to date heating degree days 257 246  
Since 1 July heating degree days 3583 3531  
Cooling Degree Days 0 0  
Month to date cooling degree days 0 0  
Year to date cooling degree days 0 0  
Moisture  
Dew Point 9 °F    
Average Humidity 74    
Maximum Humidity 95    
Minimum Humidity 53    
Precipitation  
Precipitation 0.00 in 0.03 in 0.53 in (1962)
Month to date precipitation T 0.18  
Year to date precipitation T 0.18  
Sea Level Pressure  
Sea Level Pressure 30.50 in    
Wind  
Wind Speed 4 mph (SE)    
Max Wind Speed 20 mph    
Max Gust Speed 25 mph    
Visibility 10 miles    
Events      
T = Trace of Precipitation, MM = Missing Value Source: NWS Daily Summary

Daily Weather History Graph

Daily Weather History Graph

Search for Another Location

Airport:

Trip Planner

Search our weather history database for the weather conditions in past years. The results will help you decide how hot, cold, wet, or windy it might be!

Date:

Astronomy

Jan. 06, 2014 Rise Set
Actual Time 7:28 AM PST 4:26 PM PST
Civil Twilight 6:55 AM PST 4:59 PM PST
Nautical Twilight 6:18 AM PST 5:36 PM PST
Astronomical Twilight 5:43 AM PST 6:11 PM PST
Moon 10:29 AM PST (1/6) 11:22 PM PST (1/6)
Length of Visible Light 10h 03m
Length of Day
8h 57m
Waxing Crescent, 36% of the Moon is Illuminated
Jan 6
Waxing Crescent
Jan 7
First Quarter
Jan 15
Full
Jan 23
Last Quarter
Jan 30
New

Hourly Weather History & Observations

Time (PST) Temp. Windchill Dew Point Humidity Pressure Visibility Wind Dir Wind Speed Gust Speed Precip Events Conditions
12:53 AM 3.9 °F -3.4 °F 1.0 °F 88% 30.62 in 10.0 mi NE 3.5 mph - N/A   Clear
1:53 AM 5.0 °F - 1.9 °F 87% 30.62 in 10.0 mi Calm Calm - N/A   Clear
2:53 AM 5.0 °F -2.1 °F 1.9 °F 87% 30.61 in 10.0 mi SW 3.5 mph - N/A   Clear
3:53 AM 1.9 °F -7.6 °F -0.9 °F 88% 30.62 in 10.0 mi NNE 4.6 mph - N/A   Clear
4:53 AM 3.0 °F -6.4 °F -0.0 °F 87% 30.62 in 10.0 mi SW 4.6 mph - N/A   Clear
5:53 AM 1.9 °F - -2.0 °F 83% 30.63 in 10.0 mi Calm Calm - N/A   Clear
6:53 AM 1.0 °F - -2.0 °F 87% 30.63 in 10.0 mi Calm Calm - N/A   Clear
7:53 AM 3.0 °F - -0.0 °F 87% 30.64 in 9.0 mi Calm Calm - N/A   Clear
8:53 AM 10.0 °F - 7.0 °F 87% 30.63 in 8.0 mi Calm Calm - N/A   Clear
9:53 AM 18.0 °F 12.7 °F 12.0 °F 78% 30.60 in 9.0 mi NW 3.5 mph - N/A   Clear
10:53 AM 25.0 °F 20.7 °F 14.0 °F 63% 30.56 in 10.0 mi WNW 3.5 mph - N/A   Clear
11:53 AM 28.0 °F 22.8 °F 15.1 °F 58% 30.51 in 10.0 mi West 4.6 mph - N/A   Clear
12:53 PM 28.0 °F 24.2 °F 17.1 °F 63% 30.48 in 10.0 mi West 3.5 mph - N/A   Clear
1:53 PM 30.9 °F 20.7 °F 16.0 °F 54% 30.45 in 10.0 mi East 13.8 mph - N/A   Clear
2:05 PM 30.9 °F 19.1 °F 16.0 °F 54% 30.30 in 10.0 mi East 18.4 mph - N/A   Clear
2:53 PM 30.0 °F 22.4 °F 15.1 °F 54% 30.44 in 10.0 mi SE 8.1 mph - N/A   Clear
3:53 PM 27.0 °F 14.7 °F 14.0 °F 58% 30.45 in 10.0 mi ESE 16.1 mph - N/A   Clear
4:53 PM 26.1 °F 15.0 °F 14.0 °F 60% 30.43 in 10.0 mi ESE 12.7 mph - N/A   Clear
5:53 PM 26.1 °F 17.6 °F 12.9 °F 58% 30.43 in 10.0 mi SE 8.1 mph - N/A   Clear
6:53 PM 26.1 °F 18.4 °F 12.0 °F 55% 30.42 in 10.0 mi East 6.9 mph - N/A   Clear
7:53 PM 21.0 °F 16.2 °F 14.0 °F 74% 30.43 in 10.0 mi West 3.5 mph - N/A   Clear
8:53 PM 19.9 °F 12.1 °F 14.0 °F 78% 30.40 in 10.0 mi SE 5.8 mph - N/A   Clear
9:53 PM 19.0 °F - 12.9 °F 77% 30.37 in 10.0 mi Calm Calm - N/A   Clear
10:53 PM 19.0 °F - 14.0 °F 81% 30.34 in 10.0 mi Calm Calm - N/A   Scattered Clouds
11:53 PM 21.0 °F - 15.1 °F 78% 30.32 in 10.0 mi Calm Calm - N/A   Overcast